Location: Ferchesar
(52.6477°N, 12.4298°E)
Time: 21:01:27
(UTC+02:00)

Transit 4A - Pass Details

Date: 26 February 2021
Orbit: 868 x 976 km, 66.8° (Epoch: 10 April)

Event Time Altitude Azimuth Distance (km) Brightness Sun altitude
Rises 13:10:35 0° 237° (WSW) 3,662 11.7 28.0°
Reaches altitude 10° 13:13:14 10° 242° (WSW) 2,711 11.0 27.9°
Maximum altitude 13:19:26 53° 319° (NW) 1,166 8.6 27.7°
Drops below altitude 10° 13:25:31 10° 36° (NE) 2,666 9.9 27.4°
Sets 13:28:07 0° 41° (NE) 3,596 10.5 27.3°
